Home > Weather > Resistencia > Past weeks

Flag for Argentina Weather for the Past 2 Weeks in Resistencia, Chaco, Argentina

Now
82 °F

Clear.


Feels Like: 92 °F
Forecast: 79 / 98 °F
Wind: No wind

Location: Resistencia Aero.

Current Time: Feb 8, 2016 at 2:13:39 AM

Latest Report: Feb 8, 2016 at 1:00 AM


Visibility: 10 mi

Pressure: 29.77 "Hg

Humidity: 89%

Dew point: 79 °F

Location of ResistenciaLocation

Historic Weather in Resistencia — Graph

°F

Resistencia Temperature Yesterday

Maximum temperature yesterday: 95 °F (at 4:00 PM)
Minimum temperature yesterday: 75 °F (at 5:00 AM)
Average temperature yesterday: 85 °F

High & Low Weather Summary for the Past Weeks

 TemperatureHumidityPressure
High99 °F (Jan 24, 1:00 PM)100% (Jan 27, 5:00 AM)30.07 "Hg (Jan 27, 5:00 AM)
Low63 °F (Jan 27, 5:00 AM)25% (Jan 24, 5:00 PM)29.50 "Hg (Jan 24, 5:00 PM)
Average80 °F75%29.84 "Hg
* Reported Midnight between Jan 23 and Jan 24 — Midnight between Feb 7 and Feb 8, Resistencia, Weather by CustomWeather, © 2016

Note: Actual official high and low records may vary slightly from our data, if they occured in-between our weather recording intervals... More about our weather records

Advertising

Resistencia Weather History for the Previous 24 Hours

 ConditionsComfort  
Time TempWeatherWind HumidityBarometerVisibility
12:00 AM
Mon, Feb 8
82 °FClear.2 mph89%29.77 "Hg10 mi
11:00 PM
Sun, Feb 7
82 °FClear.2 mph89%29.77 "Hg10 mi
10:00 PM84 °FClear.2 mph79%29.74 "Hg10 mi
9:00 PM86 °FClear.6 mph75%29.71 "Hg10 mi
8:00 PM86 °FClear.6 mph75%29.71 "Hg10 mi
7:00 PM90 °FPassing clouds.9 mph67%29.71 "HgN/A
6:00 PM91 °FScattered clouds.9 mph59%29.71 "HgN/A
5:00 PM93 °FScattered clouds.15 mph56%29.74 "HgN/A
4:00 PM95 °FPartly sunny.15 mph53%29.74 "HgN/A
3:00 PM93 °FPartly sunny.9 mph59%29.77 "HgN/A
2:00 PM93 °FPartly sunny.15 mph59%29.80 "HgN/A
1:00 PM91 °FPartly sunny.15 mph63%29.83 "HgN/A
12:00 PM90 °FScattered clouds.9 mph67%29.86 "HgN/A
11:00 AM88 °FPassing clouds.6 mph70%29.86 "HgN/A
10:00 AM86 °FSunny.6 mph70%29.89 "Hg10 mi
9:00 AM82 °FSunny.9 mph79%29.89 "Hg10 mi
8:00 AM79 °FPassing clouds.6 mph89%29.89 "HgN/A
7:00 AM75 °FPassing clouds.No wind100%29.89 "Hg5 mi
6:00 AM75 °FClear.2 mph100%29.89 "HgN/A
5:00 AM75 °FClear.2 mph100%29.86 "Hg10 mi
4:00 AM77 °FClear.2 mph94%29.86 "Hg10 mi
3:00 AM77 °FClear.2 mph94%29.86 "Hg10 mi
Weather by CustomWeather, © 2016

See weather overviewHow to use our weather pages